www.pogodaiklimat.ru

Погода и климат >> Архив погоды >> Турция >> Edirne


ПОГОДА в Edirne

  • Прогноз погоды в Edirne
  • Монитор погоды в Edirne
  • Климат города

АРХИВ ПОГОДЫ в Edirne

Время (UTC), дата Ветер
(напр.,м/с)
 
Видим.   Явления Облачность Т
(С)
Тd
(С)
f
(%)
Тe
(С)
Тes
(С)
Комфортность P
(гПа)
Po
(гПа)
Тmin
(С)
Tmax
(С)
R
(мм)
R24
(мм)
S
(см)
00 16.10 С 1
{2}
20 км ясно +12.0 +8.0 76 +13 +13 1025.2 1019.1
03 16.10 С 1
{3}
20 км ясно +10.8 +8.0 83 +10 +10 1025.7 1019.6
06 16.10 СЗ 1
{3}
20 км 5/0
[Ac trans]
+11.6 +8.0 79 +12 +13 1027.2 1021.0 +9.3
07 16.10 СЗ 1 20 км 4/0
[Ac trans]
+13.5 +9.0 74 +15 +17 1027.8 1021.6
08 16.10 З 1 20 км 4/0
[Ac trans]
+17.9 +11.0 64 +20 +25 1027.9 1021.8
09 16.10 С 1
{2}
20 км 4/0
[Ac trans]
+21.6 +10.0 48 +23 +30 комфорт 1027.9 1021.8
11 16.10 В 2 20 км 4/4 1000 м
[Cu med, cong]
+24.0 +10.0 41 +25 +30 комфорт 1027.3 1021.2
10 16.10 С 2 20 км 4/4 1000 м
[Cu hum]
+23.3 +10.0 43 +25 +30 комфорт 1027.9 1021.8
12 16.10 В 2
{5}
20 км 4/4 1050 м
[Cu med, cong]
+24.1 +8.0 36 +25 +28 комфорт 1027.0 1020.9
13 16.10 СВ 2 20 км 4/4 1000 м
[Cu med, cong]
+25.1 +9.0 36 +26 +28 жарко 1026.8 1020.7
14 16.10 СВ 2 20 км 4/4 1000 м
[Cu med, cong]
+24.2 +10.0 41 +25 +26 комфорт 1026.5 1020.4
15 16.10 СВ 1
{4}
20 км 4/3 1050 м
[Cu med, cong Ac trans]
+23.4 +9.0 40 +25 +25 комфорт 1026.6 1020.5
17 16.10 ЮВ 2 20 км 5/3 1000 м
[Cu med, cong Ac trans]
+20.0 +10.0 53 +22 +22 комфорт 1027.6 1021.4
16 16.10 В 2 20 км 5/3 1000 м
[Cu med, cong Ac trans]
+21.6 +10.0 48 +23 +23 комфорт 1027.1 1020.9
18 16.10 Ю 1
{5}
20 км 5/3 1050 м
[Cu med, cong Ac trans]
+18.6 +10.0 57 +21 +21 комфорт 1027.9 1021.7 +25.2
21 16.10 С 1
{2}
20 км ясно +14.4 +10.0 75 +16 +16 1028.6 1022.5
00 17.10 С 1
{3}
20 км ясно +11.1 +9.0 87 +11 +11 1028.2 1022.1
03 17.10 С 1
{3}
20 км ясно +9.5 +8.0 90 +10 +10 1027.5 1021.3
06 17.10 СЗ 1
{3}
20 км ясно +9.4 +7.0 85 +10 +11 1028.1 1021.9 +8.6
07 17.10 З 1 20 км ясно +12.4 +9.0 80 +13 +17 1028.0 1021.8
08 17.10 Ю 1 20 км ясно +16.6 +10.0 65 +18 +24 1027.8 1021.6
09 17.10 ЮЗ 1
{2}
20 км ясно +19.2 +11.0 59 +21 +29 комфорт 1027.5 1021.4
11 17.10 Ю 1 20 км ясно +22.9 +10.0 44 +25 +34 комфорт 1026.1 1020.0
10 17.10 ЮЗ 1 20 км ясно +21.7 +11.0 51 +24 +33 комфорт 1027.0 1020.9
12 17.10 В 1
{3}
20 км ясно +24.1 +11.0 44 +25 +33 комфорт 1025.3 1019.2
13 17.10 ЮЗ 1 20 км 4/0
[Ac trans]
+25.1 +11.0 41 +26 +30 жарко 1024.6 1018.5
14 17.10 Ю 1 20 км 4/0
[Ac trans]
+24.3 +10.0 40 +25 +27 комфорт 1024.1 1018.0
15 17.10 Ю 1
{2}
20 км 4/0
[Ac trans]
+23.5 +11.0 45 +25 +25 комфорт 1023.8 1017.7
17 17.10 С 1 20 км ясно +18.2 +12.0 67 +20 +20 1024.0 1017.8
16 17.10 штиль 0 20 км ясно +20.1 +12.0 60 +22 +22 комфорт 1024.0 1017.8
18 17.10 С 2
{2}
20 км ясно +17.4 +11.0 66 +18 +18 1024.0 1017.8 +25.8
21 17.10 С 1
{3}
20 км ясно +13.7 +9.0 73 +14 +14 1024.0 1017.9
00 18.10 С 1
{3}
20 км ясно +11.6 +9.0 84 +12 +12 1023.8 1017.7
03 18.10 СЗ 1
{2}
20 км ясно +9.1 +7.0 87 +9 +9 1023.0 1016.9
06 18.10 СЗ 1
{2}
20 км ясно +10.4 +8.0 85 +11 +12 1023.1 1016.9 +8.5
07 18.10 СЗ 1 20 км ясно +13.1 +9.0 76 +14 +17 1023.2 1017.0
08 18.10 З 1 20 км ясно +17.5 +11.0 66 +19 +25 1022.7 1016.6
09 18.10 СЗ 1
{2}
20 км 4/0
[Ac trans]
+21.7 +12.0 54 +24 +31 комфорт 1022.2 1016.1
11 18.10 ЮЗ 1 20 км 4/3 1000 м
[Cu med, cong Ac trans]
+25.3 +7.0 31 +25 +31 комфорт 1020.7 1014.6
10 18.10 З 1 20 км 3/3 1000 м
[Cu med, cong]
+24.5 +9.0 37 +25 +32 комфорт 1021.5 1015.4
12 18.10 Ю 1
{3}
20 км 4/3 1200 м
[Cu med, cong Ac trans]
+26.7 +6.0 27 +26 +31 жарко 1019.9 1013.9
13 18.10 ЮЗ 2 20 км 5/3 1000 м
[Cu med, cong Ac trans]
+26.9 +6.0 26 +26 +29 жарко 1019.4 1013.3
14 18.10 З 1 20 км 5/3 1000 м
[Cu med, cong Ac trans]
+26.0 +6.0 28 +26 +27 жарко 1018.9 1012.8
15 18.10 ЮЗ 1
{3}
20 км 5/3 1200 м
[Cu med, cong Ac trans]
+25.6 +10.0 37 +26 +26 жарко 1018.5 1012.4
17 18.10 СВ 1 20 км 5/0
[Ac trans]
+19.9 +9.0 49 +23 +23 комфорт 1019.1 1012.9
16 18.10 СВ 1 20 км 5/0
[Ac trans]
+20.3 +9.0 48 +23 +23 комфорт 1018.5 1012.4
18 18.10 С 1
{3}
20 км 5/0
[Ac trans]
+17.9 +9.0 56 +20 +20 1019.1 1012.9 +27.8
21 18.10 С 1
{3}
20 км 4/0
[Ac trans]
+13.2 +7.0 66 +14 +14 1019.4 1013.3
00 19.10 С 1
{3}
20 км 4/0
[Ac trans]
+9.8 +7.0 83 +9 +9 1019.1 1013.0
03 19.10 С 1
{3}
20 км 4/0
[Ac trans]
+7.9 +5.0 82 +8 +8 1018.5 1012.4
06 19.10 СЗ 1
{3}
20 км 4/0
[Ac trans]
+9.3 +5.0 74 +10 +11 1018.6 1012.4 +7.4
07 19.10 СЗ 1 20 км 4/0
[Ac trans]
+12.8 +7.0 68 +14 +16 1018.7 1012.6
08 19.10 Ю 1 20 км 4/0
[Ac trans]
+17.3 +9.0 58 +19 +24 1018.6 1012.5
09 19.10 Ю 1
{2}
20 км 4/0
[Ac trans]
+21.1 +11.0 52 +23 +29 комфорт 1018.3 1012.2
11 19.10 ЮЗ 2 20 км 5/0
[Ac trans]
+24.7 +7.0 32 +25 +30 комфорт 1017.1 1011.0
10 19.10 ЮЗ 1 20 км 5/0
[Ac trans]
+23.3 +11.0 46 +26 +32 жарко 1017.8 1011.7
12 19.10 ЮЗ 1
{3}
20 км 8/4 1050 м
[Cu med, cong Ac As]
+24.9 +6.0 30 +25 +27 комфорт 1016.6 1010.5
13 19.10 ЮЗ 1 20 км 6/4 1000 м
[Cu med, cong Ac As]
+26.0 +7.0 30 +26 +28 жарко 1016.3 1010.2
14 19.10 Ю 1 20 км 6/4 1000 м
[Cu med, cong Ac As]
+27.6 +6.0 25 +27 +28 жарко 1016.1 1010.1
15 19.10 штиль 0
{2}
20 км 6/4 1050 м
[Cu med, cong Ac As]
+24.1 +8.0 36 +25 +25 комфорт 1016.1 1010.0
17 19.10 С 1 20 км 6/4 1000 м
[Cu med, cong Ac As]
+18.2 +10.0 59 +20 +20 1016.4 1010.2
16 19.10 штиль 0 20 км 6/4 1000 м
[Cu med, cong Ac As]
+20.3 +9.0 48 +21 +21 комфорт 1016.3 1010.2
18 19.10 С 1
{2}
20 км 6/4 1050 м
[Cu med, cong Ac As]
+16.4 +8.0 58 +18 +18 1016.7 1010.5 +27.6
21 19.10 С 2
{2}
20 км 5/3 1050 м
[Cu med, cong Ac trans]
+13.0 +7.0 67 +13 +13 1017.1 1011.0
00 20.10 С 1
{3}
20 км 5/3 1050 м
[Cu med, cong Ac trans]
+9.8 +6.0 77 +9 +9 1017.3 1011.2
03 20.10 СЗ 1
{2}
20 км 4/0
[Ac trans]
+8.4 +6.0 85 +9 +9 1017.4 1011.3
06 20.10 ЮЗ 1
{2}
20 км 6/0
[Ac trans Ci fib]
+9.6 +7.0 84 +10 +11 1018.1 1011.9 +7.8
07 20.10 ЮЗ 1 20 км 5/0
[Ci fib]
+11.7 +7.0 73 +13 +15 1018.6 1012.4
08 20.10 Ю 1 20 км 4/0
[Ac trans]
+15.2 +9.0 66 +16 +20 1018.3 1012.2
09 20.10 Ю 1
{2}
20 км 4/0
[Ac trans]
+19.0 +9.0 52 +21 +28 комфорт 1018.1 1012.0
11 20.10 Ю 2 20 км ясно +24.3 +10.0 40 +25 +33 комфорт 1017.1 1011.0
10 20.10 Ю 1 20 км ясно +21.7 +10.0 47 +23 +33 комфорт 1017.7 1011.6
12 20.10 Ю 1
{3}
20 км ясно +24.6 +9.0 37 +25 +32 комфорт 1016.7 1010.6
13 20.10 Ю 1 20 км ясно +26.3 +9.0 34 +27 +31 жарко 1016.2 1010.2
14 20.10 З 1 20 км ясно +26.7 +8.0 31 +27 +29 жарко 1015.9 1009.9
15 20.10 ЮВ 1
{3}
20 км ясно +24.4 +9.0 38 +25 +25 комфорт 1016.2 1010.1
17 20.10 ЮВ 1 20 км ясно +18.7 +9.0 53 +21 +21 комфорт 1017.0 1010.8
16 20.10 ЮВ 1 20 км ясно +20.1 +9.0 49 +23 +23 комфорт 1016.5 1010.4
18 20.10 штиль 0
{3}
20 км ясно +16.5 +11.0 70 +16 +16 1017.0 1010.8 +27.1
21 20.10 С 2
{3}
20 км ясно +13.3 +8.0 70 +13 +13 1017.5 1011.4
00 21.10 штиль 0
{3}
20 км ясно +10.9 +8.0 82 +10 +10 1017.6 1011.5
03 21.10 СЗ 1
{3}
20 км 4/0
[Ac trans]
+9.0 +6.0 81 +9 +9 1017.4 1011.3
06 21.10 СЗ 1
{3}
20 км ясно +9.6 +7.0 84 +10 +11 1017.8 1011.6 +8.4
07 21.10 ЮЗ 1 20 км ясно +12.2 +8.0 75 +12 +15 1017.8 1011.7
08 21.10 Ю 1 20 км ясно +15.1 +9.0 67 +16 +22 1017.6 1011.5
09 21.10 ЮВ 1
{2}
20 км ясно +19.8 +9.0 50 +22 +31 комфорт 1017.1 1011.0
11 21.10 ЮЗ 1 20 км ясно +24.7 +8.0 34 +25 +34 комфорт 1015.7 1009.6
10 21.10 ЮЗ 1 20 км ясно +23.1 +10.0 43 +25 +34 комфорт 1016.5 1010.4
12 21.10 З 1
{3}
20 км ясно +26.0 +8.0 32 +26 +33 жарко 1014.9 1008.9
13 21.10 ЮЗ 1 20 км ясно +26.5 +6.0 27 +26 +30 жарко 1014.4 1008.4
14 21.10 ЮЗ 1 20 км ясно +26.8 +8.0 30 +27 +28 жарко 1014.0 1008.0
15 21.10 ЮВ 1
{3}
20 км ясно +24.4 +10.0 40 +25 +26 комфорт 1013.8 1007.7
17 21.10 ЮВ 1 20 км ясно +18.9 +11.0 60 +21 +21 комфорт 1014.2 1008.1
16 21.10 ЮВ 1 20 км ясно +20.8 +11.0 53 +24 +24 комфорт 1014.0 1007.9
18 21.10 Ю 1
{3}
20 км ясно +17.5 +10.0 61 +19 +19 1014.1 1008.0 +27.7
21 21.10 штиль 0
{2}
20 км ясно +14.8 +9.0 68 +15 +15 1013.9 1007.8
00 22.10 С 1
{2}
20 км ясно +11.5 +8.0 79 +12 +12 1013.6 1007.6
03 22.10 С 1
{2}
20 км ясно +9.6 +7.0 84 +10 +10 1013.6 1007.5
06 22.10 Ю 1
{2}
20 км ясно +11.0 +7.0 76 +12 +12 1014.7 1008.6 +8.5
07 22.10 З 1 20 км ясно +12.8 +8.0 73 +14 +17 1015.2 1009.1
08 22.10 Ю 1 20 км ясно +16.5 +9.0 61 +18 +24 1015.2 1009.1
09 22.10 Ю 1
{2}
20 км 4/0
[Ac lent]
+20.4 +11.0 55 +24 +29 комфорт 1014.9 1008.8
11 22.10 С 2 20 км 6/0
[Ac lent Ci fib]
+24.1 +7.0 33 +24 +29 комфорт 1013.9 1007.9
10 22.10 С 1 20 км 6/0
[Ac lent Ci fib]
+23.0 +8.0 38 +24 +30 комфорт 1014.4 1008.4
12 22.10 С 1
{4}
20 км 6/0
[Ac lent Ci fib]
+25.2 +6.0 29 +25 +29 комфорт 1013.3 1007.3
13 22.10 СЗ 1 20 км 6/0
[Ac lent Ci fib]
+24.8 +6.0 30 +25 +27 комфорт 1012.8 1006.8
14 22.10 ЮВ 1 20 км 6/0
[Ac lent Ci fib]
+24.7 +7.0 32 +25 +26 комфорт 1012.7 1006.7
15 22.10 В 1
{3}
20 км 6/0
[Ac lent Ci fib]
+23.7 +8.0 37 +24 +24 комфорт 1012.8 1006.7
17 22.10 ЮВ 3 20 км 6/0
[Ac lent Ci fib]
+18.3 +7.0 48 +19 +19 1013.8 1007.7
16 22.10 ЮВ 3 20 км 6/0
[Ac lent Ci fib]
+20.2 +8.0 45 +22 +22 комфорт 1013.5 1007.4
18 22.10 ЮВ 3
{6}
20 км 6/0
[Ci fib]
+16.9 +7.0 52 +17 +17 1013.8 1007.7 +26.2

 

Местоположение метеостанции Edirne (Турция): широта 41.67 долгота 26.57 высота над уровнем моря 51 м.

В архиве по умолчанию представлена погода в Edirne за последнюю неделю. Архивные данные за месяц целиком и за предыдущие месяцы, начиная с января 2011 года, Вы можете получить, выбрав интересующий диапазон дат из раскрывающегося списка и нажав кнопку "Ввод!".

Внимание! Время в таблицах - всемирное. Для получения местного времени необходимо прибавить поправку, которая в Edirne равна 2 ч.

Смотрите также архив погоды в соседних городах и на ближайших метеорологических станциях:

Погода в Kirklareli (Турция) (54 км)
Погода в Kurdjali (Болгария) (100 км)
Погода в Alexandroupoli (Греция) (106 км)
Погода в Tekirdag (Турция) (112 км)
Погода в Sliven (Болгария) (113 км)
Погода в Burgas (Болгария) (117 км)
Погода в Canakkale (Турция) (172 км)
Погода в Gokceada (Турция) (175 км)
Погода в Chrysopouli (Греция) (182 км)
Погода в Bandirma (Турция) (191 км)

Пояснения к столбцам:

Ветер - указаны скорость ветра в м/с - средняя за 10 мин, порывы в срок и между сроками (в фигурных скобках) и направление, откуда дует ветер: С - северный, СВ - северо-восточный, В - восточный, ЮВ - юго-восточный, Ю - южный, ЮЗ - юго-западный, З - западный, СЗ - северо-западный.
Видимость - горизонтальная дальность видимости в метрах или километрах. При видимости от 1 до 10 км при отсутствии осадков обычно наблюдается дымка, при ухудшении видимости до 1 км и менее - туман. В сухую погоду видимость может ухудшаться дымом, пылью или мглою.
Явления - указаны атмосферные явления, наблюдавшиеся в срок или в последний час перед сроком; фигурными скобками обозначены явления, наблюдавшиеся между сроками (за 1-3 часа до срока); квадратными скобками обозначены град или гололедные отложения с указанием их диаметра в мм.
Облачность - указаны через наклонную черту общая и нижняя облачность в баллах и высота нижней границы облаков в метрах; квадратными скобками обозначены формы облаков: Ci - перистые, Cs - перисто-слоистые, Cc - перисто-кучевые, Ac - высококучевые, As - высокослоистые, Sc - слоисто-кучевые, Ns - слоисто-дождевые, Cu - кучевые, Cb - кучево-дождевые. Подробнее классификацию облаков см. в Атласе облаков (PDF).
T - Температура воздуха - температура, измеренная на высоте 2 м над землей.
Td - Температура точки росы - температура, при понижении до которой содержащийся в воздухе водяной пар достигнет насыщения.
f - Относительная влажность воздуха - влажноcть воздуха, измеренная на высоте 2 м над землей.
Te - Эффективная температура - температура, которую ощущает одетый по сезону человек в тени. Характеристика душности погоды. При расчете учитывается влияние влажности воздуха и скорости ветра на теплоощущения человека.
Tes - Эффективная температура на солнце - температура, которую ощущает человек, с поправкой на солнечный нагрев. Характеристика знойности погоды. Зависит от высоты солнца над горизонтом, облачности и скорости ветра. Ночью, в пасмурную погоду, а также при ветре 12 м/с и более поправка равна нулю.
P - Атмосферное давление - приведенное к уровню моря атмосферное давление.
Po - Атмосферное давление - измеренное на уровне метеостанции атмосферное давление.
Tmin - Минимальная температура - минимум температуры воздуха на высоте 2 м над землей.
Tmax - Максимальная температура - максимум температуры воздуха на высоте 2 м над землей.
R - Количество осадков - Количество выпавших осадков за период времени, мм. При наведении курсора мыши на число - период времени, за который выпало указанное количество осадков.
R24 - Количество осадков - Количество выпавших осадков за 24 часа, мм.
S - Снежный покров - Высота снежного покрова, см. При наведении курсора мыши на число - состояние снежного покрова и степень покрытия местности в баллах.